Regional Weather Roundup
Issued by NWS

Home | Current Version | Previous Version | Text Only | Print | Product List | Glossary On
Versions: 1 2 3 4 5 6 7 8 9 10 11 12 13 14 15 16 17 18 19 20 21 22 23 24 25 26 27 28 29 30 31 32 33 34 35 36 37 38 39 40 41 42 43 44 45 46 47 48 49 50
000
ASUS43 KTOP 201959
RWRKS

WEATHER ROUNDUP FOR KANSAS
NATIONAL WEATHER SERVICE GOODLAND KS
200 PM CST MON NOV 20 2017

NOTE:  "FAIR" INDICATES FEW OR NO CLOUDS BELOW 12,000 FEET WITH NO
SIGNIFICANT WEATHER AND/OR OBSTRUCTIONS TO VISIBILITY.

KSZ001>006-013>018-027>032-041>047-202100-
NORTHWEST KANSAS

CITY           SKY/WX    TMP DP  RH WIND       PRES   REMARKS
GOODLAND       CLOUDY    71  -2   5 W14       29.72F
HAYS           SUNNY     70  23  17 SW16      29.71F
HILL CITY      SUNNY     74  12   9 SW20G26   29.67F
RUSSELL        CLOUDY    65  26  23 SW15      29.71S
$$

KSZ061>065-074>080-084>089-202100-
SOUTHWEST KANSAS

CITY           SKY/WX    TMP DP  RH WIND       PRES   REMARKS
DODGE CITY     CLOUDY    66  21  18 SW15      29.77F
GARDEN CITY    CLOUDY    67  11  11 SW9       29.77F
GREAT BEND     SUNNY     64  24  21 S21G26    29.73F
LIBERAL        CLOUDY    64  21  19 S13       29.80F
$$

KSZ066>073-081>083-090>101-202100-
SOUTHEAST KANSAS

CITY           SKY/WX    TMP DP  RH WIND       PRES   REMARKS
CHANUTE        SUNNY     63  29  27 S23G31    29.87F
COFFEYVILLE    SUNNY     63  29  27 S22G31    29.89F
HUTCHINSON     CLOUDY    63  24  22 S24       29.77F
MEDICINE LODGE   N/A     65  22  19 S20G25    29.78F
NEWTON         CLOUDY    61  26  26 S29G38    29.77F
PARSONS        SUNNY     63  28  26 S21G28    29.89F
WICHITA INTL   MOSUNNY   62  26  25 SW22G31   29.81F
WICHITA JABRA  SUNNY     60  26  27 S28G33    29.81
WICHITA MCCONL MOSUNNY   61  25  25 SW22G29   29.82F
WINFIELD       SUNNY     63  28  26 S24G38    29.87F
$$

KSZ007>012-019>026-033>040-048>060-102>105-202100-
NORTHEAST KANSAS

CITY           SKY/WX    TMP DP  RH WIND       PRES   REMARKS
CONCORDIA      CLOUDY    60  24  25 SW16      29.69F
EMPORIA        SUNNY     63  27  25 SW24G38   29.79F
LAWRENCE       SUNNY     63  28  26 S25G33    29.78F
MANHATTAN      SUNNY     61  26  26 SW18G28   29.72F
OLATHE IND     SUNNY     61  29  29 SW28G40   29.80F
OLATHE EXE     SUNNY     60  29  30 SW25G37   29.80F
SALINA         CLOUDY    64  25  22 S24G32    29.73F
TOPEKA BILLARD SUNNY     64  26  23 S20G32    29.74F
TOPEKA FORBES  SUNNY     64  27  24 S22G38    29.74F
$$



USA.gov is the U.S. government's official web portal to all federal, state and local government web resources and services.